Regional Weather Roundup
Issued by NWS

Home | Current Version | Previous Version | Text Only | Print | Product List | Glossary Off
Versions: 1 2 3 4 5 6 7 8 9 10 11 12 13 14 15 16 17 18 19 20 21 22 23 24 25 26 27 28

000
ASUS45 KCYS 241110
RWRWY

WYOMING REGIONAL WEATHER ROUNDUP
NATIONAL WEATHER SERVICE CHEYENNE WY
500 AM MDT THU APR 24 2014

NOTE:  "FAIR" INDICATES FEW OR NO CLOUDS BELOW 12,000 FEET
WITH NO SIGNIFICANT WEATHER AND/OR OBSTRUCTIONS TO VISIBILITY.

WYZ001-241200-
YELLOWSTONE NATIONAL PARK

CITY           SKY/WX    TMP DP  RH WIND       PRES   REMARKS
LK YELLOWSTONE   N/A     26  19  74 VRB7      29.99S WCI  18
W YELLOWSTONE  NOT AVBL

$$
WYZ002>013-054>058-071-098>099-241200-
NORTHERN WYOMING

CITY           SKY/WX    TMP DP  RH WIND       PRES   REMARKS
JACKSON        MOCLDY    30  25  80 SW5       30.00S WCI  25
CODY           PTCLDY    43  18  36 W15G23    29.88R
GREYBULL       CLEAR     32  22  66 SE3       29.89S
WORLAND        PTCLDY    29  19  66 SE7       29.89S WCI  22
SHERIDAN         N/A     27  14  59 W8          N/A  WCI  18
BUFFALO        CLEAR     36  14  40 E3        29.85F
GILLETTE       CLEAR     36  18  48 SW16      29.85F WCI  26
HULETT         FAIR      32  21  64 SW5       29.87  WCI  27
NEWCASTLE      FAIR      28  23  80 CALM      29.90

$$
WYZ014>020-022>026-101>103-241200-
CENTRAL WYOMING

CITY           SKY/WX    TMP DP  RH WIND       PRES   REMARKS
BIG PINEY      CLOUDY    20  13  74 E6        30.04S WCI  12
PINEDALE       CLOUDY    23  21  93 CALM      30.04F
DUBOIS         FAIR      28  16  59 NW13G21   29.94S WCI  18
LANDER         CLEAR     28  15  58 SE3       29.94R
RIVERTON       CLEAR     32  15  49 W12       29.94F WCI  23
CASPER         CLEAR     31  16  54 S13       29.95S WCI  21
DOUGLAS        CLEAR     27  18  69 CALM      29.95R

$$
WYZ021-027>030-104>119-241200-
SOUTHERN WYOMING

CITY           SKY/WX    TMP DP  RH WIND       PRES   REMARKS
EVANSTON       CLEAR     25  15  66 SW10      30.06S WCI  15
FORT BRIDGER   FAIR      31  19  61 SW12      30.08S WCI  22
ROCK SPRINGS   CLEAR     28  13  53 SW12      30.05R WCI  18
DIXON          FAIR      22  17  79 N3        30.11R
RAWLINS        CLEAR     28  14  55 SW18      30.03S WCI  15
SARATOGA       FAIR      27  16  63 SW13      30.05F WCI  16
LARAMIE        CLEAR     22  11  62 W12       30.00R WCI  10
CHEYENNE       CLEAR     32  14  47 NW5       29.98R WCI  27
TORRINGTON     CLEAR     32  28  85 W6        29.94S WCI  26
PINE BLUFFS    FAIR      34  16  47 W16       29.97S WCI  23

$$



USA.gov is the U.S. government's official web portal to all federal, state and local government web resources and services.